Tracking 28790 objects as of 19-Apr-2024
HD Live streaming from Space Station
objects crossing your sky now

TITAN 34D TRANSTAGE DEB

Track TITAN 34D TRANSTAGE DEB now!


NORAD ID: 22669
Int'l Code: 1988-077E
Perigee: 372.1 km
Apogee: 38,235.4 km
Inclination: 26.5 °
Period: 682.4 minutes
Semi major axis: 25674 km
RCS: Unknown
Launch date: September 2, 1988
Source: United States (US)
Launch site: AIR FORCE EASTERN TEST RANGE (AFETR)

Note: This is SATELLITE DEBRIS
Your satellite tracking list
Your tracking list is empty




NASA's NSSDC Master Catalog

Two Line Element Set (TLE):
1 22669U 88077E   24109.10472960  .00001586  00000-0  37301-2 0  9996
2 22669  26.5314 105.5692 7373626 292.2371   8.5526  2.11029721 37399
Source of the keplerian elements: AFSPC